SCP
-0 0 0 0 0 0 0 0 0 0 0 0 0 0 0 0 0 0 0 0 0 0 0 0 0 0 0 0 0 0 0 0 0 0 0 0 0 0 0 0 0 0 0 0
-0 0 0 0 0 0 -0 0 0 0 0 0 0 0 0 0 0 0 0 0 0 0 0 0 0 0 0 0 0 0 0 0 0 0 0 0 0 0 0 0 0 0 0 0
0 -0 0 0 0 0 0 0 0 0 0 0 0 0 0 0 0 0 0 0 0 0 0 0 0 0 0 0 0 0 0 0 0 0 0 0 0 0 0 0 0 0 0 0
-0 -0 0 0 0 0 0 0 0 0 0 0 0 0 0 0 0 0 0 0 0 0 0 0 0 0 0 0 0 0 0 0 0 0 0 0 0 0 0 0 0 0 0 0
0 -0 -0 0 0 0 0 0 0 0 0 0 0 0 0 0 0 0 0 0 0 0 0 0 0 0 0 0 0 0 0 0 0 0 0 0 0 0 0 0 0 0 0 0
0 -0 0 0 -0 0 -0 0 0 0 0 0 0 0 0 0 0 0 0 0 0 0 0 0 0 0 0 0 0 0 0 0 0 0 0 0 0 0 0 0 0 0 0 0
0 0 0 0 0 -0 -0 0 0 0 0 0 0 0 0 0 0 0 0 0 0 0 0 0 0 0 0 0 0 0 0 0 0 0 0 0 0 0 0 0 0 0 0 0
0 0 0 0 0 -0 -0 0 0 0 0 0 0 0 0 0 0 0 0 0 0 0 0 0 0 0 0 0 0 0 0 0 0 0 0 0 0 0 0 0 0 0 0 0
0 0 0 0 0 0 0 0 0 0 0 0 0 0 0 0 0 0 0 0 -0 -0 0 0 0 0 0 0 0 0 0 0 0 0 0 0 0 0 0 0 0 0 0 0
-0 -0 0 0 0 0 0 0 0 0 0 0 0 0 0 0 0 0 0 0 0 0 0 0 0 0 0 0 0 0 0 0 0 0 0 0 0 0 0 0 0 0 0 0
-0 -0 -0 0 0 0 0 0 0 0 0 0 0 0 0 0 0 0 0 0 0 0 0 0 0 0 0 0 0 0 0 0 0 0 0 0 0 0 0 0 0 0 0 0
0 -0 -0 0 0 0 0 0 0 0 0 0 0 0 0 0 0 0 0 0 0 0 0 0 0 0 0 0 0 0 0 0 0 0 0 0 0 0 0 0 0 0 0 0
0 0 -0 0 0 0 0 0 0 0 0 0 0 0 0 0 0 0 0 0 0 0 0 0 0 0 0 0 0 0 0 0 0 0 0 0 0 0 0 0 0 0 0 0
0 0 0 0 0 0 0 0 0 0 0 0 0 0 0 0 0 0 0 0 0 0 0 0 0 0 0 0 0 0 0 0 0 0 0 0 0 0 0 0 0 0 0 0
0 0 0 0 0 0 0 0 0 0 0 0 0 0 0 0 0 0 0 0 0 0 0 0 0 0 0 0 0 0 0 0 0 0 0 0 0 0 0 0 0 0 0 0
0 0 0 0 0 0 0 -0 -0 0 0 0 0 0 0 0 0 0 0 0 0 0 0 0 0 0 0 0 0 0 0 0 0 0 0 0 0 0 0 0 0 0 0 0
0 0 0 0 0 0 0 0 0 0 0 0 0 0 0 0 0 0 0 0 0 0 0 0 0 0 0 0 0 0 0 0 0 0 0 0 0 0 0 0 0 0 0 0
0 0 0 0 0 0 0 0 0 0 0 0 0 0 0 0 0 0 0 0 0 0 0 0 0 0 0 0 0 0 0 0 0 0 0 0 0 0 0 0 0 0 0 0
0 0 0 0 0 0 0 0 0 0 0 0 0 0 0 0 0 0 0 0 0 0 0 0 -0 -0 0 0 0 0 0 0 0 0 0 0 0 0 0 0 0 0 0 0
0 0 0 0 0 0 0 0 0 0 0 0 0 0 0 0 0 0 0 0 0 0 -0 -0 -0 -0 0 0 0 0 0 0 0 0 0 0 0 0 0 0 0 0 0 0
0 0 0 0 0 -0 0 0 0 0 0 0 0 0 0 0 0 0 0 0 0 0 0 0 0 0 0 0 0 0 0 0 0 0 0 0 0 0 0 0 0 0 0 0
0 0 0 0 0 0 0 0 0 0 0 0 0 0 0 0 0 0 0 0 0 0 0 0 0 0 0 0 0 0 0 0 0 0 0 0 0 0 0 0 0 0 0 0
0 0 0 0 0 0 0 0 0 0 0 0 0 0 0 0 0 0 0 0 0 0 0 0 0 0 0 0 0 0 0 0 0 0 0 0 0 0 0 0 0 0 0 0
0 0 0 0 0 0 0 0 0 0 0 0 0 0 0 0 0 0 0 0 0 0 0 0 0 0 0 0 0 0 0 0 0 0 0 0 0 0 0 0 0 0 0 0
0 0 -0 -0 0 0 0 0 0 0 0 0 0 0 0 0 0 0 0 0 0 0 0 0 0 0 0 0 0 0 0 0 0 0 0 0 0 0 0 0 0 0 0 0
0 0 0 -0 0 0 0 0 0 0 0 0 0 0 0 0 0 0 0 0 0 0 0 0 0 0 0 0 0 0 0 0 0 0 0 0 0 0 0 0 0 0 0 0
Wind_Speed_500mb
11 9 10 21 22 23 16 16 7 6 11 11 14 13 13 9 6 8 7 48 45 41 32 26 31 51 47 41 40 40 44 43 42 46 47 44 43 38 36 35 32 32 31 32
4 15 8 18 23 26 32 25 13 13 7 9 3 18 9 5 7 13 12 18 35 36 41 36 34 41 45 42 35 35 33 34 37 38 39 39 38 42 40 38 38 37 36 37
9 7 6 12 18 23 28 16 6 2 8 4 6 4 11 7 10 11 16 19 14 19 41 41 43 44 43 44 44 42 38 35 33 33 32 32 35 37 34 32 32 32 31 31
2 13 6 9 8 14 16 6 9 12 9 4 4 1 11 12 12 18 29 31 22 21 21 31 27 31 37 39 44 46 47 45 42 42 43 42 42 41 38 35 33 30 31 32
3 14 9 4 2 9 10 10 9 9 6 2 9 11 13 11 15 13 21 31 26 15 9 17 23 25 29 33 35 42 45 47 49 50 52 51 50 48 43 35 29 28 29 29
1 2 9 6 10 5 19 8 9 8 5 4 16 5 4 5 1 3 11 23 22 18 8 5 14 20 26 29 35 35 35 39 43 47 49 50 48 45 42 40 37 39 41 41
3 4 4 8 7 4 4 4 5 7 5 3 10 5 2 8 11 8 10 17 13 14 10 5 7 20 31 33 33 34 33 31 30 31 31 31 31 32 34 36 36 36 35 33
3 9 5 2 0 8 8 6 7 7 5 6 8 10 8 5 23 26 26 21 15 11 9 8 6 3 6 14 20 25 28 28 27 26 26 27 28 29 27 25 22 21 21 22
8 3 3 6 5 3 7 3 4 10 3 5 4 11 13 6 11 24 36 33 22 14 12 11 9 8 6 3 5 10 15 17 18 19 19 17 16 14 13 11 10 10 11 13
9 1 3 4 6 6 2 8 7 5 6 1 3 6 9 2 10 9 18 31 29 21 14 11 9 7 6 5 4 5 9 12 13 14 15 14 12 10 8 7 6 6 5 5
9 7 3 4 6 2 5 4 8 7 5 5 5 1 7 10 8 12 16 26 27 26 19 15 12 10 7 4 5 5 9 10 13 13 11 10 9 8 6 4 3 3 3 5
4 6 4 2 4 3 3 2 5 7 4 1 3 4 10 10 13 23 25 31 31 26 26 26 21 15 11 9 9 10 12 13 13 13 14 12 10 7 5 2 1 4 4 5
5 1 1 12 10 8 7 7 7 9 5 5 8 6 8 11 19 21 26 32 35 33 32 29 30 25 17 13 11 13 14 16 16 15 12 9 6 5 3 2 3 5 6 7
8 4 3 8 4 3 3 5 5 7 6 2 5 5 3 14 15 22 19 24 31 34 35 34 34 34 25 18 16 16 17 17 17 15 14 13 10 8 6 6 7 6 7 8
4 6 4 7 12 5 2 2 3 5 7 7 7 3 11 14 14 11 19 29 32 33 32 34 34 32 31 27 25 22 21 21 19 18 19 16 13 11 8 7 9 9 8 9
6 1 5 8 12 14 8 11 9 7 7 8 9 12 13 17 16 19 22 26 25 28 32 33 33 31 27 26 27 29 30 29 29 29 27 24 18 15 14 14 11 10 11 10
5 7 6 7 9 9 12 9 9 7 8 8 10 11 7 8 13 8 19 17 19 24 33 38 41 39 37 33 30 26 29 36 40 38 37 33 27 23 20 14 12 15 15 15
5 6 5 5 8 5 13 9 10 9 8 12 11 9 4 3 7 12 22 20 24 28 35 40 44 43 38 36 35 36 33 29 38 42 42 42 36 32 29 24 20 19 18 17
7 7 3 6 6 11 20 5 7 10 11 6 10 14 8 5 4 5 16 25 30 36 41 45 46 49 47 41 38 39 38 39 40 43 47 47 44 38 31 27 20 24 24 18
5 6 7 6 9 10 8 4 14 11 8 8 9 11 10 7 5 9 21 32 42 43 45 51 52 51 50 47 43 40 40 39 40 42 45 47 44 42 32 24 20 27 24 16
5 5 9 5 5 13 18 19 8 10 12 5 10 9 7 4 15 31 28 46 40 43 45 44 45 49 51 48 45 43 40 38 36 37 37 38 37 34 34 32 27 20 16 17
12 11 8 6 5 13 15 9 10 12 6 6 10 7 12 14 31 32 38 43 42 38 38 39 40 43 45 45 44 38 34 30 25 27 30 30 30 25 16 14 10 14 21 18
4 12 9 15 12 15 18 16 29 28 28 30 29 36 35 43 40 41 45 44 33 34 42 42 37 32 35 37 36 28 24 14 8 15 21 25 28 17 17 22 31 26 19 21
7 16 4 4 14 28 33 37 45 49 51 51 49 50 44 43 39 39 36 30 38 45 46 40 32 28 24 24 26 22 15 11 2 8 13 11 8 5 7 19 27 24 28 28
11 13 9 11 19 27 51 52 51 47 43 44 41 45 46 38 39 43 44 44 48 47 45 33 27 26 26 23 15 16 16 10 6 2 6 9 11 14 20 28 29 28 28 25
25 14 9 15 22 17 40 49 40 37 49 52 50 51 49 48 48 50 46 41 41 36 33 29 29 28 25 24 23 18 17 19 16 16 17 22 25 29 35 34 34 33 31 30
Wind_Direction_500mb
7 30 75 104 113 104 93 88 64 116 105 209 278 287 266 276 195 152 147 182 180 187 195 192 185 196 201 208 213 216 221 228 230 228 228 231 235 242 247 253 256 259 264 265
24 51 358 54 102 86 87 73 22 336 13 201 236 286 286 200 248 200 129 150 182 177 183 187 192 197 201 207 210 216 226 229 230 233 236 239 242 240 249 251 256 256 258 258
54 118 106 94 99 86 70 66 37 189 230 263 128 277 283 253 228 193 117 92 105 164 175 178 186 192 203 193 198 207 216 232 241 245 246 242 244 248 247 252 252 254 252 258
60 163 149 97 86 124 69 306 347 19 63 193 132 334 11 341 46 32 37 63 72 96 135 176 193 222 211 212 217 215 217 217 220 230 236 234 232 246 253 261 257 251 255 260
292 174 172 8 38 273 131 237 30 22 78 341 27 96 332 342 35 28 33 44 46 58 111 158 187 203 218 225 236 235 235 234 233 235 238 243 245 246 248 245 245 242 245 253
54 174 155 192 156 290 159 167 98 43 70 83 313 43 309 293 99 68 34 33 22 11 24 245 219 216 228 233 232 238 236 233 232 234 238 239 242 247 252 255 252 251 254 256
23 17 13 91 86 326 297 125 57 32 48 153 200 75 301 18 27 31 14 26 5 357 4 360 262 243 239 242 244 246 245 236 231 230 230 233 236 241 247 254 259 260 259 258
127 344 352 286 143 195 212 166 135 142 160 182 168 170 90 81 48 59 62 59 60 41 22 17 10 340 259 246 240 235 236 234 235 235 237 240 245 249 252 252 251 252 252 253
359 53 352 33 332 99 218 121 152 110 29 77 222 112 66 60 72 46 47 48 50 39 21 4 358 357 351 300 217 216 222 225 223 225 224 218 216 214 217 223 230 234 240 243
326 230 0 293 330 342 157 165 75 5 95 87 303 61 125 169 72 51 46 42 31 30 23 2 351 353 334 304 271 200 193 188 188 183 189 185 188 194 207 218 226 235 243 246
334 342 338 70 15 280 33 1 58 105 97 135 127 295 190 148 113 71 55 44 32 25 16 357 334 321 305 279 237 206 199 193 191 187 183 183 184 188 192 200 227 257 269 272
18 340 341 335 280 318 278 70 151 121 217 97 100 193 197 147 84 45 31 22 15 14 7 360 347 325 305 280 249 219 205 203 196 186 180 174 174 169 166 179 300 299 306 299
129 94 294 342 350 357 16 30 97 97 65 197 137 236 171 67 25 34 28 17 12 13 14 3 351 336 315 288 262 240 217 198 194 190 184 182 189 195 208 252 280 279 279 278
124 55 128 178 245 232 183 59 7 96 105 207 223 300 290 335 346 352 8 23 22 19 15 11 4 360 334 298 271 245 224 219 215 213 210 210 212 218 228 243 254 269 278 281
90 120 39 345 345 327 281 226 168 198 205 142 212 239 298 312 302 328 23 17 9 12 8 358 352 354 354 333 301 269 248 244 238 239 241 239 234 233 241 252 256 257 262 263
35 83 63 349 358 359 308 280 267 234 215 223 237 283 240 269 312 4 16 16 33 25 11 4 1 351 341 338 331 300 273 259 255 248 246 249 244 242 241 241 238 257 265 262
72 112 64 283 342 2 338 247 216 218 203 183 218 224 294 310 339 336 354 62 31 7 359 359 359 350 344 328 310 304 296 277 268 259 252 247 246 246 242 250 269 265 261 258
110 80 96 219 21 25 246 299 218 219 270 259 272 261 332 292 343 51 75 31 8 356 352 350 347 346 339 326 313 300 280 280 277 271 264 255 247 240 233 229 235 244 248 253
156 116 46 116 167 287 306 341 153 165 278 201 230 275 316 78 91 122 35 9 353 345 341 338 337 334 332 325 316 301 295 279 268 272 266 257 250 246 239 232 236 257 242 245
72 126 114 59 123 219 250 286 100 79 295 281 158 131 134 47 10 263 313 323 331 332 332 328 325 325 323 321 317 309 298 285 276 271 265 251 240 235 231 222 260 238 234 245
72 173 185 184 215 288 249 244 44 85 245 195 131 134 165 193 259 298 301 316 316 316 320 320 320 322 322 320 316 309 301 288 278 265 259 248 239 225 225 223 222 229 243 268
162 147 198 125 185 271 224 117 172 224 255 256 227 235 228 302 306 284 296 308 312 310 316 317 319 323 326 322 317 316 306 294 281 258 243 227 215 210 216 226 250 284 270 264
214 188 178 180 209 233 204 220 226 256 266 278 279 295 301 305 298 293 296 297 297 310 315 312 312 321 331 330 323 323 325 310 276 246 225 210 184 224 242 262 246 245 257 270
247 214 196 109 240 238 249 261 277 283 285 287 290 290 293 294 296 306 300 297 297 303 308 309 304 309 322 333 343 340 357 338 244 211 204 225 229 185 262 268 258 261 273 262
204 150 180 257 279 271 267 268 279 292 292 293 298 295 291 294 287 302 288 290 291 291 294 295 294 295 301 305 331 351 357 22 356 219 197 230 253 250 262 268 266 272 268 266
201 196 190 250 232 233 271 287 293 291 295 300 298 294 291 291 287 290 280 285 286 286 285 277 280 284 293 295 297 293 289 297 303 283 282 297 292 278 268 269 271 267 268 266
Wind_Speed_850mb
11 9 10 21 22 23 16 16 7 6 11 11 14 13 13 9 6 8 7 48 45 41 32 26 31 51 47 41 40 40 44 43 42 46 47 44 43 38 36 35 32 32 31 32
4 15 8 18 23 26 32 25 13 13 7 9 3 18 9 5 7 13 12 18 35 36 41 36 34 41 45 42 35 35 33 34 37 38 39 39 38 42 40 38 38 37 36 37
9 7 6 12 18 23 28 16 6 2 8 4 6 4 11 7 10 11 16 19 14 19 41 41 43 44 43 44 44 42 38 35 33 33 32 32 35 37 34 32 32 32 31 31
2 13 6 9 8 14 16 6 9 12 9 4 4 1 11 12 12 18 29 31 22 21 21 31 27 31 37 39 44 46 47 45 42 42 43 42 42 41 38 35 33 30 31 32
3 14 9 4 2 9 10 10 9 9 6 2 9 11 13 11 15 13 21 31 26 15 9 17 23 25 29 33 35 42 45 47 49 50 52 51 50 48 43 35 29 28 29 29
1 2 9 6 10 5 19 8 9 8 5 4 16 5 4 5 1 3 11 23 22 18 8 5 14 20 26 29 35 35 35 39 43 47 49 50 48 45 42 40 37 39 41 41
3 4 4 8 7 4 4 4 5 7 5 3 10 5 2 8 11 8 10 17 13 14 10 5 7 20 31 33 33 34 33 31 30 31 31 31 31 32 34 36 36 36 35 33
3 9 5 2 0 8 8 6 7 7 5 6 8 10 8 5 23 26 26 21 15 11 9 8 6 3 6 14 20 25 28 28 27 26 26 27 28 29 27 25 22 21 21 22
8 3 3 6 5 3 7 3 4 10 3 5 4 11 13 6 11 24 36 33 22 14 12 11 9 8 6 3 5 10 15 17 18 19 19 17 16 14 13 11 10 10 11 13
9 1 3 4 6 6 2 8 7 5 6 1 3 6 9 2 10 9 18 31 29 21 14 11 9 7 6 5 4 5 9 12 13 14 15 14 12 10 8 7 6 6 5 5
9 7 3 4 6 2 5 4 8 7 5 5 5 1 7 10 8 12 16 26 27 26 19 15 12 10 7 4 5 5 9 10 13 13 11 10 9 8 6 4 3 3 3 5
4 6 4 2 4 3 3 2 5 7 4 1 3 4 10 10 13 23 25 31 31 26 26 26 21 15 11 9 9 10 12 13 13 13 14 12 10 7 5 2 1 4 4 5
5 1 1 12 10 8 7 7 7 9 5 5 8 6 8 11 19 21 26 32 35 33 32 29 30 25 17 13 11 13 14 16 16 15 12 9 6 5 3 2 3 5 6 7
8 4 3 8 4 3 3 5 5 7 6 2 5 5 3 14 15 22 19 24 31 34 35 34 34 34 25 18 16 16 17 17 17 15 14 13 10 8 6 6 7 6 7 8
4 6 4 7 12 5 2 2 3 5 7 7 7 3 11 14 14 11 19 29 32 33 32 34 34 32 31 27 25 22 21 21 19 18 19 16 13 11 8 7 9 9 8 9
6 1 5 8 12 14 8 11 9 7 7 8 9 12 13 17 16 19 22 26 25 28 32 33 33 31 27 26 27 29 30 29 29 29 27 24 18 15 14 14 11 10 11 10
5 7 6 7 9 9 12 9 9 7 8 8 10 11 7 8 13 8 19 17 19 24 33 38 41 39 37 33 30 26 29 36 40 38 37 33 27 23 20 14 12 15 15 15
5 6 5 5 8 5 13 9 10 9 8 12 11 9 4 3 7 12 22 20 24 28 35 40 44 43 38 36 35 36 33 29 38 42 42 42 36 32 29 24 20 19 18 17
7 7 3 6 6 11 20 5 7 10 11 6 10 14 8 5 4 5 16 25 30 36 41 45 46 49 47 41 38 39 38 39 40 43 47 47 44 38 31 27 20 24 24 18
5 6 7 6 9 10 8 4 14 11 8 8 9 11 10 7 5 9 21 32 42 43 45 51 52 51 50 47 43 40 40 39 40 42 45 47 44 42 32 24 20 27 24 16
5 5 9 5 5 13 18 19 8 10 12 5 10 9 7 4 15 31 28 46 40 43 45 44 45 49 51 48 45 43 40 38 36 37 37 38 37 34 34 32 27 20 16 17
12 11 8 6 5 13 15 9 10 12 6 6 10 7 12 14 31 32 38 43 42 38 38 39 40 43 45 45 44 38 34 30 25 27 30 30 30 25 16 14 10 14 21 18
4 12 9 15 12 15 18 16 29 28 28 30 29 36 35 43 40 41 45 44 33 34 42 42 37 32 35 37 36 28 24 14 8 15 21 25 28 17 17 22 31 26 19 21
7 16 4 4 14 28 33 37 45 49 51 51 49 50 44 43 39 39 36 30 38 45 46 40 32 28 24 24 26 22 15 11 2 8 13 11 8 5 7 19 27 24 28 28
11 13 9 11 19 27 51 52 51 47 43 44 41 45 46 38 39 43 44 44 48 47 45 33 27 26 26 23 15 16 16 10 6 2 6 9 11 14 20 28 29 28 28 25
25 14 9 15 22 17 40 49 40 37 49 52 50 51 49 48 48 50 46 41 41 36 33 29 29 28 25 24 23 18 17 19 16 16 17 22 25 29 35 34 34 33 31 30
Wind_Direction_850mb
7 30 75 104 113 104 93 88 64 116 105 209 278 287 266 276 195 152 147 182 180 187 195 192 185 196 201 208 213 216 221 228 230 228 228 231 235 242 247 253 256 259 264 265
24 51 358 54 102 86 87 73 22 336 13 201 236 286 286 200 248 200 129 150 182 177 183 187 192 197 201 207 210 216 226 229 230 233 236 239 242 240 249 251 256 256 258 258
54 118 106 94 99 86 70 66 37 189 230 263 128 277 283 253 228 193 117 92 105 164 175 178 186 192 203 193 198 207 216 232 241 245 246 242 244 248 247 252 252 254 252 258
60 163 149 97 86 124 69 306 347 19 63 193 132 334 11 341 46 32 37 63 72 96 135 176 193 222 211 212 217 215 217 217 220 230 236 234 232 246 253 261 257 251 255 260
292 174 172 8 38 273 131 237 30 22 78 341 27 96 332 342 35 28 33 44 46 58 111 158 187 203 218 225 236 235 235 234 233 235 238 243 245 246 248 245 245 242 245 253
54 174 155 192 156 290 159 167 98 43 70 83 313 43 309 293 99 68 34 33 22 11 24 245 219 216 228 233 232 238 236 233 232 234 238 239 242 247 252 255 252 251 254 256
23 17 13 91 86 326 297 125 57 32 48 153 200 75 301 18 27 31 14 26 5 357 4 360 262 243 239 242 244 246 245 236 231 230 230 233 236 241 247 254 259 260 259 258
127 344 352 286 143 195 212 166 135 142 160 182 168 170 90 81 48 59 62 59 60 41 22 17 10 340 259 246 240 235 236 234 235 235 237 240 245 249 252 252 251 252 252 253
359 53 352 33 332 99 218 121 152 110 29 77 222 112 66 60 72 46 47 48 50 39 21 4 358 357 351 300 217 216 222 225 223 225 224 218 216 214 217 223 230 234 240 243
326 230 0 293 330 342 157 165 75 5 95 87 303 61 125 169 72 51 46 42 31 30 23 2 351 353 334 304 271 200 193 188 188 183 189 185 188 194 207 218 226 235 243 246
334 342 338 70 15 280 33 1 58 105 97 135 127 295 190 148 113 71 55 44 32 25 16 357 334 321 305 279 237 206 199 193 191 187 183 183 184 188 192 200 227 257 269 272
18 340 341 335 280 318 278 70 151 121 217 97 100 193 197 147 84 45 31 22 15 14 7 360 347 325 305 280 249 219 205 203 196 186 180 174 174 169 166 179 300 299 306 299
129 94 294 342 350 357 16 30 97 97 65 197 137 236 171 67 25 34 28 17 12 13 14 3 351 336 315 288 262 240 217 198 194 190 184 182 189 195 208 252 280 279 279 278
124 55 128 178 245 232 183 59 7 96 105 207 223 300 290 335 346 352 8 23 22 19 15 11 4 360 334 298 271 245 224 219 215 213 210 210 212 218 228 243 254 269 278 281
90 120 39 345 345 327 281 226 168 198 205 142 212 239 298 312 302 328 23 17 9 12 8 358 352 354 354 333 301 269 248 244 238 239 241 239 234 233 241 252 256 257 262 263
35 83 63 349 358 359 308 280 267 234 215 223 237 283 240 269 312 4 16 16 33 25 11 4 1 351 341 338 331 300 273 259 255 248 246 249 244 242 241 241 238 257 265 262
72 112 64 283 342 2 338 247 216 218 203 183 218 224 294 310 339 336 354 62 31 7 359 359 359 350 344 328 310 304 296 277 268 259 252 247 246 246 242 250 269 265 261 258
110 80 96 219 21 25 246 299 218 219 270 259 272 261 332 292 343 51 75 31 8 356 352 350 347 346 339 326 313 300 280 280 277 271 264 255 247 240 233 229 235 244 248 253
156 116 46 116 167 287 306 341 153 165 278 201 230 275 316 78 91 122 35 9 353 345 341 338 337 334 332 325 316 301 295 279 268 272 266 257 250 246 239 232 236 257 242 245
72 126 114 59 123 219 250 286 100 79 295 281 158 131 134 47 10 263 313 323 331 332 332 328 325 325 323 321 317 309 298 285 276 271 265 251 240 235 231 222 260 238 234 245
72 173 185 184 215 288 249 244 44 85 245 195 131 134 165 193 259 298 301 316 316 316 320 320 320 322 322 320 316 309 301 288 278 265 259 248 239 225 225 223 222 229 243 268
162 147 198 125 185 271 224 117 172 224 255 256 227 235 228 302 306 284 296 308 312 310 316 317 319 323 326 322 317 316 306 294 281 258 243 227 215 210 216 226 250 284 270 264
214 188 178 180 209 233 204 220 226 256 266 278 279 295 301 305 298 293 296 297 297 310 315 312 312 321 331 330 323 323 325 310 276 246 225 210 184 224 242 262 246 245 257 270
247 214 196 109 240 238 249 261 277 283 285 287 290 290 293 294 296 306 300 297 297 303 308 309 304 309 322 333 343 340 357 338 244 211 204 225 229 185 262 268 258 261 273 262
204 150 180 257 279 271 267 268 279 292 292 293 298 295 291 294 287 302 288 290 291 291 294 295 294 295 301 305 331 351 357 22 356 219 197 230 253 250 262 268 266 272 268 266
201 196 190 250 232 233 271 287 293 291 295 300 298 294 291 291 287 290 280 285 286 286 285 277 280 284 293 295 297 293 289 297 303 283 282 297 292 278 268 269 271 267 268 266